RUK5DM EGSS-EGPH

Flight info

Callsign RUK5DM
Flight time 0h 51m
Altitude 32000
Route UTAVA Q75 BUZAD T420 TNT UN57 POL UN601 RIBEL DCT INPIP
Aircraft B738/M-SDE2E3FGHIRWXY/LB1

Departure

Time 2026-04-22 18:35
Airport London Stansted Airport (EGSS)

Arrival

Time 2026-04-22 19:26
Airport Edinburgh Airport (EGPH)
Time Latitude Longitude Altitude Speed Heading
2026-04-22 18:04 51.89122 0.25839 351 ft 0 kts 222°
2026-04-22 18:25 51.89136 0.25860 353 ft 4 kts 229°
2026-04-22 18:25 51.89151 0.25895 348 ft 4 kts 249°
2026-04-22 18:25 51.89155 0.25934 352 ft 4 kts 291°
2026-04-22 18:26 51.89150 0.25951 353 ft 2 kts 313°
2026-04-22 18:28 51.89154 0.25944 352 ft 3 kts 313°
2026-04-22 18:28 51.89179 0.25897 351 ft 9 kts 313°
2026-04-22 18:28 51.89237 0.25796 349 ft 15 kts 313°
2026-04-22 18:28 51.89314 0.25663 343 ft 16 kts 313°
2026-04-22 18:29 51.89390 0.25531 347 ft 16 kts 313°
2026-04-22 18:29 51.89404 0.25393 343 ft 13 kts 226°
2026-04-22 18:29 51.89336 0.25291 343 ft 14 kts 223°
2026-04-22 18:29 51.89258 0.25156 343 ft 18 kts 238°
2026-04-22 18:30 51.89185 0.24992 342 ft 18 kts 223°
2026-04-22 18:30 51.88981 0.24688 342 ft 26 kts 223°
2026-04-22 18:30 51.88835 0.24469 343 ft 29 kts 223°
2026-04-22 18:31 51.88692 0.24253 347 ft 27 kts 223°
2026-04-22 18:31 51.88557 0.24051 340 ft 26 kts 223°
2026-04-22 18:31 51.88431 0.23862 339 ft 24 kts 223°
2026-04-22 18:31 51.88314 0.23687 335 ft 23 kts 223°
2026-04-22 18:32 51.88188 0.23498 337 ft 28 kts 223°
2026-04-22 18:32 51.88036 0.23270 336 ft 30 kts 223°
2026-04-22 18:32 51.87885 0.23043 336 ft 29 kts 223°
2026-04-22 18:32 51.87742 0.22830 334 ft 27 kts 222°
2026-04-22 18:33 51.87608 0.22629 337 ft 25 kts 222°
2026-04-22 18:33 51.87483 0.22441 334 ft 24 kts 223°
2026-04-22 18:33 51.87406 0.22310 331 ft 15 kts 245°
2026-04-22 18:33 51.87425 0.22162 328 ft 14 kts 311°
2026-04-22 18:34 51.87495 0.22042 327 ft 15 kts 317°
2026-04-22 18:34 51.87553 0.22060 326 ft 9 kts 40°
2026-04-22 18:34 51.87640 0.22189 327 ft 41 kts 43°
2026-04-22 18:34 51.88012 0.22747 334 ft 103 kts 43°
2026-04-22 18:35 51.88668 0.23724 353 ft 151 kts 44°
2026-04-22 18:35 51.89448 0.24902 904 ft 154 kts 45°
2026-04-22 18:35 51.90228 0.26112 1662 ft 152 kts 49°
2026-04-22 18:35 51.91006 0.27288 2234 ft 160 kts 47°
2026-04-22 18:36 51.91880 0.28602 2498 ft 183 kts 47°
2026-04-22 18:36 51.93043 0.29682 2804 ft 207 kts 23°
2026-04-22 18:36 51.94563 0.29916 3061 ft 233 kts 356°
2026-04-22 18:36 51.96121 0.28847 3288 ft 262 kts 322°
2026-04-22 18:37 51.97130 0.26288 3676 ft 280 kts 284°
2026-04-22 18:37 51.97499 0.23179 4381 ft 281 kts 276°
2026-04-22 18:37 51.97654 0.21090 4862 ft 283 kts 275°
2026-04-22 18:37 51.97977 0.16810 5776 ft 287 kts 275°
2026-04-22 18:38 51.98237 0.13588 6522 ft 288 kts 276°
2026-04-22 18:38 51.98545 0.10369 7264 ft 290 kts 277°
2026-04-22 18:38 51.98880 0.07135 7964 ft 293 kts 277°
2026-04-22 18:39 51.99634 0.00594 9376 ft 300 kts 286°
2026-04-22 18:39 52.00274 -0.02637 10124 ft 303 kts 287°
2026-04-22 18:39 52.00922 -0.05878 10705 ft 311 kts 286°
2026-04-22 18:39 52.01598 -0.09357 10881 ft 334 kts 285°
2026-04-22 18:40 52.02296 -0.13084 11055 ft 355 kts 285°
2026-04-22 18:40 52.03018 -0.17042 11213 ft 376 kts 285°
2026-04-22 18:40 52.03760 -0.21192 11599 ft 387 kts 284°
2026-04-22 18:40 52.04510 -0.25430 12215 ft 390 kts 284°
2026-04-22 18:41 52.05250 -0.29642 13174 ft 384 kts 284°
2026-04-22 18:41 52.05976 -0.33813 13962 ft 387 kts 284°
2026-04-22 18:41 52.06718 -0.38095 14335 ft 399 kts 284°
2026-04-22 18:41 52.07476 -0.42475 14862 ft 406 kts 284°
2026-04-22 18:42 52.08240 -0.46897 15585 ft 406 kts 284°
2026-04-22 18:42 52.09006 -0.51338 16205 ft 410 kts 284°
2026-04-22 18:42 52.09779 -0.55834 16784 ft 415 kts 284°
2026-04-22 18:42 52.10557 -0.60365 17493 ft 416 kts 284°
2026-04-22 18:43 52.11324 -0.64850 18139 ft 419 kts 284°
2026-04-22 18:43 52.12199 -0.69374 18807 ft 421 kts 292°
2026-04-22 18:43 52.13725 -0.73464 19331 ft 424 kts 310°
2026-04-22 18:43 52.15887 -0.76716 19949 ft 424 kts 327°
2026-04-22 18:44 52.18411 -0.79188 20562 ft 423 kts 332°
2026-04-22 18:44 52.20972 -0.81574 21260 ft 421 kts 332°
2026-04-22 18:44 52.23483 -0.83992 21952 ft 419 kts 331°
2026-04-22 18:44 52.25994 -0.86461 22453 ft 422 kts 330°
2026-04-22 18:45 52.28514 -0.88965 22892 ft 426 kts 330°
2026-04-22 18:45 52.31046 -0.91490 23475 ft 426 kts 330°
2026-04-22 18:45 52.33578 -0.94018 24025 ft 427 kts 330°
2026-04-22 18:45 52.36114 -0.96552 24445 ft 428 kts 330°
2026-04-22 18:46 52.38626 -0.99062 24839 ft 430 kts 330°
2026-04-22 18:46 52.41191 -1.01625 25145 ft 434 kts 329°
2026-04-22 18:46 52.43788 -1.04226 25474 ft 435 kts 329°
2026-04-22 18:46 52.46368 -1.06813 25919 ft 435 kts 329°
2026-04-22 18:47 52.48952 -1.09408 26281 ft 437 kts 329°
2026-04-22 18:47 52.51557 -1.12025 26540 ft 440 kts 329°
2026-04-22 18:47 52.54179 -1.14665 26867 ft 442 kts 328°
2026-04-22 18:47 52.56771 -1.17279 27214 ft 443 kts 328°
2026-04-22 18:48 52.59405 -1.19936 27579 ft 444 kts 328°
2026-04-22 18:48 52.62037 -1.22596 28010 ft 443 kts 328°
2026-04-22 18:48 52.64655 -1.25244 28531 ft 440 kts 328°
2026-04-22 18:48 52.67249 -1.27872 29088 ft 437 kts 328°
2026-04-22 18:49 52.69832 -1.30491 29636 ft 434 kts 327°
2026-04-22 18:49 52.71533 -1.32219 29954 ft 433 kts 327°
2026-04-22 18:49 52.74089 -1.34821 30584 ft 431 kts 327°
2026-04-22 18:49 52.76644 -1.37426 30995 ft 430 kts 327°
2026-04-22 18:50 52.79193 -1.40028 31303 ft 430 kts 327°
2026-04-22 18:50 52.81742 -1.42635 31648 ft 430 kts 327°
2026-04-22 18:50 52.84278 -1.45231 32060 ft 428 kts 327°
2026-04-22 18:50 52.86618 -1.47630 32389 ft 427 kts 327°
2026-04-22 18:51 52.91713 -1.52866 32390 ft 432 kts 326°
2026-04-22 18:51 52.96767 -1.58072 32403 ft 429 kts 326°
2026-04-22 18:52 53.01822 -1.63293 32403 ft 427 kts 326°
2026-04-22 18:52 53.06993 -1.68137 32404 ft 429 kts 336°
2026-04-22 18:53 53.12596 -1.71579 32407 ft 429 kts 338°
2026-04-22 18:53 53.18208 -1.74969 32420 ft 429 kts 338°
2026-04-22 18:54 53.23816 -1.78421 32421 ft 430 kts 337°
2026-04-22 18:54 53.29435 -1.81921 32428 ft 431 kts 337°
2026-04-22 18:55 53.35069 -1.85449 32427 ft 432 kts 337°
2026-04-22 18:55 53.40711 -1.88990 32422 ft 433 kts 337°
2026-04-22 18:56 53.46335 -1.92529 32426 ft 434 kts 337°
2026-04-22 18:56 53.52031 -1.96123 32433 ft 435 kts 337°
2026-04-22 18:57 53.57695 -1.99708 32443 ft 435 kts 337°
2026-04-22 18:57 53.63326 -2.03282 32434 ft 435 kts 337°
2026-04-22 18:58 53.68996 -2.06891 32436 ft 435 kts 337°
2026-04-22 18:58 53.74658 -2.10506 32425 ft 435 kts 336°
2026-04-22 18:59 53.80269 -2.14309 32444 ft 434 kts 335°
2026-04-22 18:59 53.85866 -2.18160 32442 ft 434 kts 335°
2026-04-22 19:00 53.91471 -2.21996 32441 ft 434 kts 335°
2026-04-22 19:00 53.97078 -2.25843 32449 ft 434 kts 335°
2026-04-22 19:01 54.02645 -2.29675 32453 ft 435 kts 335°
2026-04-22 19:01 54.08248 -2.33543 32446 ft 435 kts 335°
2026-04-22 19:02 54.13862 -2.37429 32445 ft 435 kts 335°
2026-04-22 19:02 54.19477 -2.41329 32453 ft 435 kts 335°
2026-04-22 19:03 54.25097 -2.45243 32451 ft 436 kts 335°
2026-04-22 19:03 54.30717 -2.49169 32458 ft 436 kts 334°
2026-04-22 19:04 54.36305 -2.53084 32466 ft 437 kts 335°
2026-04-22 19:04 54.41934 -2.57039 32449 ft 437 kts 335°
2026-04-22 19:05 54.47563 -2.61007 32454 ft 437 kts 335°
2026-04-22 19:05 54.53197 -2.64990 32466 ft 438 kts 335°
2026-04-22 19:06 54.58872 -2.69016 31817 ft 443 kts 334°
2026-04-22 19:06 54.61716 -2.71034 31173 ft 442 kts 334°
2026-04-22 19:07 54.67363 -2.75054 30085 ft 434 kts 334°
2026-04-22 19:07 54.70138 -2.77035 29594 ft 429 kts 334°
2026-04-22 19:07 54.72892 -2.79003 29120 ft 424 kts 334°
2026-04-22 19:07 54.75604 -2.80946 28625 ft 419 kts 334°
2026-04-22 19:08 54.78264 -2.82854 28142 ft 422 kts 334°
2026-04-22 19:08 54.80999 -2.84822 27638 ft 427 kts 335°
2026-04-22 19:08 54.83733 -2.86787 27126 ft 423 kts 335°
2026-04-22 19:08 54.86444 -2.88738 26630 ft 419 kts 335°
2026-04-22 19:09 54.89128 -2.90673 26090 ft 417 kts 335°
2026-04-22 19:09 54.91807 -2.92610 25522 ft 417 kts 335°
2026-04-22 19:09 54.94490 -2.94552 24971 ft 416 kts 334°
2026-04-22 19:09 54.97162 -2.96487 24395 ft 416 kts 335°
2026-04-22 19:10 54.99642 -2.98288 23810 ft 416 kts 335°
2026-04-22 19:10 55.02308 -3.00225 23173 ft 414 kts 335°
2026-04-22 19:10 55.04962 -3.02156 22588 ft 412 kts 335°
2026-04-22 19:10 55.07601 -3.04072 22017 ft 409 kts 335°
2026-04-22 19:11 55.10224 -3.05988 21441 ft 407 kts 336°
2026-04-22 19:11 55.12800 -3.07870 20884 ft 406 kts 336°
2026-04-22 19:11 55.15397 -3.09770 20335 ft 404 kts 336°
2026-04-22 19:11 55.17986 -3.11667 19823 ft 402 kts 336°
2026-04-22 19:12 55.20567 -3.13561 19308 ft 401 kts 336°
2026-04-22 19:12 55.23137 -3.15449 18790 ft 400 kts 336°
2026-04-22 19:12 55.25704 -3.17337 18203 ft 399 kts 336°
2026-04-22 19:12 55.28222 -3.19191 17660 ft 396 kts 336°
2026-04-22 19:13 55.30746 -3.21052 17125 ft 389 kts 336°
2026-04-22 19:13 55.33204 -3.22867 16647 ft 377 kts 336°
2026-04-22 19:13 55.35586 -3.24628 16141 ft 367 kts 336°
2026-04-22 19:13 55.37922 -3.26358 15666 ft 358 kts 336°
2026-04-22 19:14 55.40191 -3.28041 15208 ft 350 kts 336°
2026-04-22 19:14 55.42411 -3.29691 14767 ft 342 kts 336°
2026-04-22 19:14 55.44583 -3.31306 14345 ft 336 kts 336°
2026-04-22 19:14 55.46714 -3.32892 13854 ft 330 kts 336°
2026-04-22 19:15 55.48100 -3.33928 13565 ft 326 kts 337°
2026-04-22 19:15 55.50803 -3.36204 12957 ft 318 kts 324°
2026-04-22 19:15 55.52492 -3.38632 12585 ft 309 kts 317°
2026-04-22 19:15 55.54095 -3.41124 12173 ft 305 kts 318°
2026-04-22 19:16 55.55683 -3.43562 11790 ft 300 kts 318°
2026-04-22 19:16 55.57244 -3.45916 11398 ft 297 kts 319°
2026-04-22 19:16 55.58815 -3.48250 11015 ft 293 kts 319°
2026-04-22 19:16 55.60376 -3.50546 10642 ft 290 kts 320°
2026-04-22 19:17 55.61921 -3.52813 10245 ft 287 kts 319°
2026-04-22 19:17 55.63457 -3.55066 9848 ft 284 kts 320°
2026-04-22 19:17 55.64956 -3.57317 9456 ft 281 kts 318°
2026-04-22 19:17 55.66411 -3.59594 9077 ft 277 kts 317°
2026-04-22 19:18 55.67845 -3.61850 8721 ft 274 kts 318°
2026-04-22 19:18 55.69262 -3.64076 8367 ft 271 kts 319°
2026-04-22 19:18 55.70698 -3.66206 8007 ft 268 kts 320°
2026-04-22 19:18 55.72133 -3.68289 7668 ft 265 kts 321°
2026-04-22 19:19 55.73552 -3.70355 7336 ft 262 kts 320°
2026-04-22 19:19 55.74955 -3.72406 6999 ft 260 kts 320°
2026-04-22 19:19 55.76296 -3.74540 6641 ft 257 kts 311°
2026-04-22 19:19 55.77539 -3.76749 6249 ft 251 kts 319°
2026-04-22 19:20 55.78942 -3.78532 5916 ft 240 kts 339°
2026-04-22 19:20 55.80546 -3.78866 5497 ft 232 kts 18°
2026-04-22 19:20 55.81841 -3.77424 5120 ft 211 kts 59°
2026-04-22 19:20 55.82443 -3.75171 4912 ft 201 kts 71°
2026-04-22 19:21 55.83050 -3.72893 4615 ft 204 kts 67°
2026-04-22 19:21 55.83717 -3.70748 4384 ft 193 kts 65°
2026-04-22 19:21 55.84393 -3.68713 4069 ft 189 kts 64°
2026-04-22 19:21 55.85065 -3.66716 3816 ft 185 kts 64°
2026-04-22 19:22 55.85713 -3.64776 3564 ft 181 kts 64°
2026-04-22 19:22 55.86345 -3.62898 3393 ft 172 kts 64°
2026-04-22 19:22 55.86973 -3.61041 3103 ft 175 kts 64°
2026-04-22 19:22 55.87605 -3.59179 2899 ft 176 kts 62°
2026-04-22 19:23 55.88242 -3.57315 2608 ft 177 kts 63°
2026-04-22 19:23 55.88855 -3.55482 2413 ft 168 kts 62°
2026-04-22 19:23 55.89443 -3.53728 2147 ft 159 kts 62°
2026-04-22 19:23 55.89983 -3.52118 1942 ft 142 kts 61°
2026-04-22 19:24 55.90474 -3.50652 1683 ft 135 kts 63°
2026-04-22 19:24 55.90950 -3.49232 1539 ft 131 kts 62°
2026-04-22 19:24 55.91424 -3.47836 1337 ft 132 kts 62°
2026-04-22 19:24 55.91890 -3.46447 1178 ft 133 kts 62°
2026-04-22 19:25 55.92367 -3.45027 978 ft 133 kts 61°
2026-04-22 19:25 55.92836 -3.43642 786 ft 131 kts 59°
2026-04-22 19:25 55.93295 -3.42280 601 ft 126 kts 60°
2026-04-22 19:25 55.93753 -3.40934 450 ft 129 kts 59°
2026-04-22 19:26 55.94222 -3.39553 264 ft 131 kts 59°
2026-04-22 19:26 55.94687 -3.38174 114 ft 125 kts 59°
2026-04-22 19:26 55.95050 -3.37100 111 ft 70 kts 59°
2026-04-22 19:26 55.95208 -3.36634 110 ft 28 kts 59°
2026-04-22 19:27 55.95258 -3.36442 109 ft 13 kts 107°
2026-04-22 19:27 55.95195 -3.36353 113 ft 11 kts 149°
2026-04-22 19:27 55.95144 -3.36265 115 ft 11 kts 109°
2026-04-22 19:27 55.95121 -3.36149 114 ft 9 kts 108°
2026-04-22 19:28 55.95102 -3.36045 115 ft 9 kts 109°
2026-04-22 19:28 55.95079 -3.35947 114 ft 8 kts 118°
2026-04-22 19:28 55.95051 -3.35856 112 ft 8 kts 122°
2026-04-22 19:28 55.95005 -3.35839 114 ft 8 kts 205°
2026-04-22 19:29 55.94953 -3.35862 115 ft 8 kts 170°
2026-04-22 19:29 55.94910 -3.35787 115 ft 10 kts 118°
2026-04-22 19:29 55.94885 -3.35708 114 ft 6 kts 128°
2026-04-22 19:29 55.94850 -3.35711 115 ft 5 kts 205°
2026-04-22 19:30 55.94831 -3.35730 113 ft 4 kts 208°
2026-04-22 19:30 55.94813 -3.35746 115 ft 0 kts 208°
2026-04-22 19:31 55.94813 -3.35747 115 ft 0 kts 208°